Location: Kerb�bon
(47.7970°N, 3.3487°W)
Time: 13:32:01
(UTC+00:00)

ATLAS CENTAUR R/B - Pass Details

Date: 12 May 2021
Orbit: 472 x 671 km, 64.6° (Epoch: 13 June)

Event Time Altitude Azimuth Distance (km) Brightness Sun altitude
Exits shadow 23:40:03 22° 71° (ENE) 1,120 3.0 -23.5°
Drops below altitude 10° 23:41:44 10° 54° (NE) 1,702 4.2 -23.5°
Sets 23:44:04 0° 45° (NE) 2,618 5.3 -23.6°
